QZS-1R (QZSS/PRN 196)

Last updated on Wed Nov 05 2025 00:03:27 GMT+0000 (Coordinated Universal Time)

1 49336U 21096A 25308.57492348 -.00000197 00000+0 00000+0 0 9999 2 49336 36.9972 82.9265 0749779 270.6026 33.6491 1.00269571 14755
UTC large
Height (km)
Speed (km/s)
/
Latitude / Longitude
Inclination (degrees)
Orbital Period (minutes)
Azimuth
Elevation
Range (km)
Doppler Factor

Next 0 passes for location: London (51.5072 / 0.1276)

Sorry there are no passes over London.